Location: Ottawa
(45.4170°N, 75.7000°W)
Time: 07:17:11
(UTC-05:00)

ISS - Pass Details

Date: 13 February 2026
Orbit: 416 x 427 km, 51.6° (Epoch: 6 March)

Event Time Altitude Azimuth Distance (km) Brightness Sun altitude
Exits shadow 05:42:27 - 204° (SSW) 1,730 -0.8 -15.4°
Reaches altitude 10° 05:43:07 10° 199° (SSW) 1,487 -1.1 -15.3°
Maximum altitude 05:46:00 27° 139° (SE) 827 -1.8 -14.8°
Drops below altitude 10° 05:48:54 10° 79° (E) 1,492 0.3 -14.3°
Sets 05:51:11 0° 67° (ENE) 2,358 1.2 -13.9°
